Regional Weather Roundup
Issued by NWS

Home | Current Version | Previous Version | Graphics & Text | Print | Product List | Glossary On
Versions: 1 2 3 4 5 6 7 8 9 10 11 12 13 14 15 16 17 18 19 20 21 22 23 24 25 26 27 28 29 30 31 32 33 34 35 36 37 38 39 40 41 42 43 44 45 46 47 48 49 50
000
ASUS43 KMKX 300011
RWRWI

WISCONSIN REGIONAL WEATHER ROUNDUP
NATIONAL WEATHER SERVICE MILWAUKEE/SULLIVAN WI
700 PM CDT WED OCT 29 2014

NOTE: "FAIR" INDICATES FEW OR NO CLOUDS BELOW 12,000 FEET WITH NO
SIGNIFICANT WEATHER AND/OR OBSTRUCTIONS TO VISIBILITY.

WIZ001-002-006>008-014>016-023>028-300100-
NORTHWEST WISCONSIN

CITY           SKY/WX    TMP DP  RH WIND       PRES   REMARKS
SUPERIOR ARPT  CLOUDY    41  34  75 SW7       30.07S
6HR MIN TEMP:  41; 6HR MAX TEMP:  44;

ASHLAND        CLOUDY    41  33  73 SW6       30.08S
6HR MIN TEMP:  41; 6HR MAX TEMP:  48;

HAYWARD        CLOUDY    40  33  76 S3        30.08S
6HR MIN TEMP:  39; 6HR MAX TEMP:  41;

SIREN          CLOUDY    39  32  75 W5        30.09S
6HR MIN TEMP:  39; 6HR MAX TEMP:  43;

CUMBERLAND     CLOUDY    37  32  81 W7        30.08S WCI  32
RICE LAKE      CLOUDY    41  32  70 W8        30.11R
6HR MIN TEMP:  40; 6HR MAX TEMP:  42;

CHETEK         CLOUDY    41  32  71 W3        30.10R
6HR MIN TEMP:  40; 6HR MAX TEMP:  42;

LADYSMITH      CLOUDY    40  33  76 W5        30.11R
6HR MIN TEMP:  40; 6HR MAX TEMP:  44;

EAU CLAIRE     CLOUDY    42  31  64 CALM      30.09S
6HR MIN TEMP:  41; 6HR MAX TEMP:  47;

MENOMONIE      CLOUDY    42  32  67 NW3       30.10S
6HR MIN TEMP:  42; 6HR MAX TEMP:  45;

NEW RICHMOND   MOCLDY    37  31  78 NW3       30.10S
6HR MIN TEMP:  37; 6HR MAX TEMP:  43;

OSCEOLA        CLOUDY    40  32  74 W3        30.13S
6HR MIN TEMP:  40; 6HR MAX TEMP:  43;

$$

WIZ003>005-009-010-017-018-300100-
NORTH CENTRAL WISCONSIN

CITY           SKY/WX    TMP DP  RH WIND       PRES   REMARKS
MANITOWISH WTR CLOUDY    38  33  81 SW5       30.05R WCI  35
6HR MIN TEMP:  37; 6HR MAX TEMP:  40;

ARBOR VITAE    CLOUDY    42  35  77 W3        30.05S
6HR MIN TEMP:  39; 6HR MAX TEMP:  42;

WOODRUFF       CLOUDY    42  35  77 W3        30.05S
6HR MIN TEMP:  39; 6HR MAX TEMP:  42;

RHINELANDER    CLOUDY    40  33  76 W6        30.06S
6HR MIN TEMP:  40; 6HR MAX TEMP:  43;

EAGLE RIVER    CLOUDY    38  31  75 CALM      30.05S
6HR MIN TEMP:  38; 6HR MAX TEMP:  42;

LAND O LAKES   CLOUDY    38  34  85 CALM      30.05S
6HR MIN TEMP:  38; 6HR MAX TEMP:  43;

PHILLIPS       CLOUDY    39  32  77 CALM      30.06R
6HR MIN TEMP:  39; 6HR MAX TEMP:  41;

TOMAHAWK       CLOUDY    40  33  76 CALM      30.06S
6HR MIN TEMP:  40; 6HR MAX TEMP:  42;

MEDFORD        PTCLDY    37  32  83 W7        30.08R WCI  31
6HR MIN TEMP:  37; 6HR MAX TEMP:  44;

MERRILL        CLOUDY    42  34  73 NW6       30.07R
6HR MIN TEMP:  42; 6HR MAX TEMP:  44;

$$

WIZ029-030-035-036-043>047-300100-
CENTRAL WISCONSIN

CITY           SKY/WX    TMP DP  RH WIND       PRES   REMARKS
WAUSAU         MOCLDY    42  32  67 W3        30.06S
6HR MIN TEMP:  42; 6HR MAX TEMP:  45;

MOSINEE        MOCLDY    39  34  81 W3        30.09S
MARSHFIELD     CLEAR     38  32  79 NW5       30.09R WCI  34
6HR MIN TEMP:  38; 6HR MAX TEMP:  47;

STEVENS POINT  CLEAR     36  31  83 CALM      30.09S
6HR MIN TEMP:  34; 6HR MAX TEMP:  43; 6HR PCP:  0.01;

WAUPACA        PTCLDY    43  33  69 W5        30.10R
6HR MIN TEMP:  43; 6HR MAX TEMP:  50;

WAUTOMA        CLEAR     37  32  82 CALM      30.10S
6HR MIN TEMP:  37; 6HR MAX TEMP:  49;

WISC RAPIDS    CLEAR     37  31  78 CALM      30.11R
6HR MIN TEMP:  37; 6HR MAX TEMP:  48;

CAMP DOUGLAS   PTCLDY    34  32  93 CALM      30.10S
$$

WIZ011>013-019>022-031-037>040-048>050-300100-
NORTHEAST WISCONSIN

CITY           SKY/WX    TMP DP  RH WIND       PRES   REMARKS
ANTIGO         CLOUDY    39  34  81 CALM      30.07R
6HR MIN TEMP:  39; 6HR MAX TEMP:  44;

SHAWANO        CLOUDY    46  34  62 NW3       30.09S
6HR MIN TEMP:  46; 6HR MAX TEMP:  50;

OCONTO         CLOUDY    47  33  60 W6        30.08R
6HR MIN TEMP:  46; 6HR MAX TEMP:  49;

STURGEON BAY   CLOUDY    46  32  57 NW6       30.08R
6HR MIN TEMP:  45; 6HR MAX TEMP:  48;

GREEN BAY      CLOUDY    46  35  65 NW6       30.09R
6HR MIN TEMP:  46; 6HR MAX TEMP:  49;

MANITOWOC      CLOUDY    46  35  65 W7        30.10R
6HR MIN TEMP:  46; 6HR MAX TEMP:  48;

APPLETON       MOCLDY    45  32  61 W6        30.10R
CLINTONVILLE   CLOUDY    45  32  61 W6        30.09R
OSHKOSH        MOCLDY    44  33  65 CALM      30.10R
6HR MIN TEMP:  44; 6HR MAX TEMP:  48;

$$

WIZ032>034-041-042-053>061-300100-
SOUTHWEST WISCONSIN

CITY           SKY/WX    TMP DP  RH WIND       PRES   REMARKS
LA CROSSE      CLEAR     41  32  70 W7        30.11S
6HR MIN TEMP:  41; 6HR MAX TEMP:  50;

SPARTA         CLEAR     37  30  77 CALM      30.12S
6HR MIN TEMP:  37; 6HR MAX TEMP:  48;

VIROQUA        CLEAR     39  32  76 W3        30.10S
6HR MIN TEMP:  38; 6HR MAX TEMP:  46;

BOSCOBEL       CLEAR     39  31  72 CALM      30.12F
6HR MIN TEMP:  39; 6HR MAX TEMP:  51;

PRAIRIE DU CHI CLEAR     42  31  67 CALM      30.12S
6HR MIN TEMP:  42; 6HR MAX TEMP:  48;

PLATTEVILLE    CLEAR     41  32  69 CALM      30.13R
$$

WIZ056-057-062-063-064-067-068-300100-
SOUTH CENTRAL WISCONSIN

CITY           SKY/WX    TMP DP  RH WIND       PRES   REMARKS
REEDSBURG      CLEAR     41  32  70 CALM      30.10S
6HR MIN TEMP:  40; 6HR MAX TEMP:  47;

BARABOO/DELLS  CLEAR     37  30  77 CALM      30.10S
6HR MIN TEMP:  37; 6HR MAX TEMP:  48;

LONE ROCK      CLEAR     43  31  62 CALM      30.11S
6HR MIN TEMP:  43; 6HR MAX TEMP:  53;

MINERAL POINT  CLEAR     41  32  70 CALM      30.11S
MADISON        CLEAR     39  31  72 CALM      30.12R
6HR MIN TEMP:  39; 6HR MAX TEMP:  50;

MIDDLETON      CLEAR     39  31  75 CALM      30.12R
6HR MIN TEMP:  39; 6HR MAX TEMP:  51;

WATERTOWN      CLEAR     36  31  82 CALM      30.11R
6HR MIN TEMP:  36; 6HR MAX TEMP:  47;

MONROE         CLEAR     43  32  65 W8        30.11S
JANESVILLE     PTCLDY    45  30  57 W5        30.11R
$$

WIZ051-052-058>065-066-070>072-300100-
SOUTHEAST WISCONSIN

CITY           SKY/WX    TMP DP  RH WIND       PRES   REMARKS
MILWAUKEE      MOCLDY    46  31  55 NW3       30.12R
6HR MIN TEMP:  46; 6HR MAX TEMP:  49;

WAUKESHA       PTCLDY    43  30  61 NW5       30.12R
MILWAUKEE/TIMM CLOUDY    45  30  57 N6        30.12R
RACINE         CLOUDY    46  31  55 NW7       30.14R
6HR MIN TEMP:  46; 6HR MAX TEMP:  51;

BURLINGTON     CLEAR     34  29  80 CALM      30.12S
6HR MIN TEMP:  34; 6HR MAX TEMP:  48;

KENOSHA        CLEAR     43  31  62 NW5       30.12R
6HR MIN TEMP:  40; 6HR MAX TEMP:  51;

FOND DU LAC    MOCLDY    43  32  65 CALM      30.11R
6HR MIN TEMP:  43; 6HR MAX TEMP:  47;

SHEBOYGAN      CLOUDY    45  34  65 W3        30.10R
6HR MIN TEMP:  45; 6HR MAX TEMP:  47;

WEST BEND      CLOUDY    43  30  61 CALM      30.11R
JUNEAU         CLEAR     40  32  72 CALM      30.12R
6HR MIN TEMP:  40; 6HR MAX TEMP:  46;

$$

LSZ147-162-300100-
LAKE SUPERIOR

STATION/POSITION TIME  TEMP    WIND        PRES    WAVE
                       AIR SEA DIR/SP/G            HT/PER
                 (UTC) (F)     (DEG/KT/KT) (MB)    (FT/S)
W MID LAKE BUOY  2350   43 45  260/ 12/ 14 1018.0R   1/ 3
DEVILS ISLAND    0000   43     270/ 11/ 13 1018.6R
PORT WING        2300   43     210/  4/  7 1018.3
SAXON HARBOR     2300   44      CALM  /  4 1018.3S
$$

LMZ867-665-643>646-300100-
LAKE MICHIGAN

STATION/POSITION TIME  TEMP    WIND        PRES    WAVE
                       AIR SEA DIR/SP/G            HT/PER



USA.gov is the U.S. government's official web portal to all federal, state and local government web resources and services.